Home   Weather   Muttenz   Past weeks

Flag for Switzerland Past Weather in Muttenz, Basel-Land, Switzerland — Yesterday and Last 2 Weeks

Now
73 °F

Passing clouds.


Feels Like: 77 °F
Forecast: 48 / 74 °F
Wind: 8 mph from Northwest

Location: Bale-Mulhouse

Current Time: Aug 20, 2017 at 5:47:14 pm

Latest Report: Aug 20, 2017 at 5:00 pm


Visibility: N/A

Pressure: 30.24 "Hg

Humidity: 36%

Dew Point: 45 °F

Location of MuttenzLocation

Past Weather in Muttenz — Graph

°F

Muttenz Temperature Yesterday

Maximum temperature yesterday: 73 °F (at 3:30 pm)
Minimum temperature yesterday: 57 °F (at 10:30 pm)
Average temperature yesterday: 65 °F

High & Low Weather Summary for the Past Weeks

 TemperatureHumidityPressure
High86 °F (Aug 15, 12:30 pm)100% (Aug 9, 7:00 am)30.27 "Hg (Aug 9, 7:00 am)
Low48 °F (Aug 20, 5:30 am)30% (Aug 7, 7:00 pm)29.83 "Hg (Aug 8, 5:30 am)
Average66 °F74%30.09 "Hg
* Reported Aug 5 4:00 pm — Aug 20 4:30 pm, Muttenz. Weather by CustomWeather, © 2017

Note: Actual official high and low records may vary slightly from our data, if they occured in-between our weather recording intervals... More about our weather records

Advertising

Muttenz Weather History for the Previous 24 Hours

Scroll right to see more
 ConditionsComfort  
Time TempWeatherWind HumidityBarometerVisibility
4:30 pm
Sun, Aug 20
73 °FPassing clouds.6 mph41%30.24 "HgN/A
4:00 pm73 °FPassing clouds.7 mph38%30.24 "HgN/A
3:30 pm72 °FPassing clouds.8 mph41%30.24 "HgN/A
3:00 pm72 °FScattered clouds.5 mph38%30.24 "HgN/A
2:00 pm72 °FScattered clouds.3 mph47%30.24 "HgN/A
1:30 pm72 °FScattered clouds.3 mph47%30.24 "HgN/A
1:00 pm70 °FScattered clouds.7 mph46%30.27 "HgN/A
12:30 pm70 °FScattered clouds.3 mph50%30.27 "HgN/A
12:00 pm68 °FPassing clouds.3 mph53%30.27 "HgN/A
11:30 am66 °FPassing clouds.3 mph52%30.27 "HgN/A
11:00 am66 °FPassing clouds.2 mph56%30.27 "HgN/A
10:30 am64 °FPassing clouds.3 mph68%30.27 "HgN/A
10:00 am63 °FPassing clouds.3 mph68%30.27 "HgN/A
9:30 am61 °FSunny.2 mph72%30.27 "Hg10 mi
9:00 am57 °FSunny.2 mph82%30.27 "Hg10 mi
8:30 am54 °FSunny.1 mph94%30.27 "Hg10 mi
7:30 am50 °FSunny.2 mph94%30.24 "Hg10 mi
7:00 am48 °FSunny.3 mph94%30.24 "Hg10 mi
6:30 am48 °FClear.1 mph94%30.24 "Hg10 mi
6:00 am48 °FClear.2 mph94%30.24 "Hg10 mi
5:30 am48 °FClear.1 mph94%30.24 "Hg10 mi
5:00 am50 °FClear.2 mph94%30.24 "Hg10 mi
4:30 am50 °FClear.1 mph94%30.21 "Hg10 mi
4:00 am52 °FClear.1 mph88%30.21 "Hg10 mi
3:30 am52 °FClear.2 mph88%30.21 "Hg10 mi
3:00 am52 °FClear.2 mph88%30.21 "Hg10 mi
2:00 am55 °FClear.2 mph82%30.21 "Hg10 mi
1:30 am57 °FClear.1 mph77%30.21 "Hg10 mi
1:00 am57 °FClear.3 mph77%30.21 "Hg10 mi
12:30 am57 °FPassing clouds.7 mph77%30.21 "HgN/A
12:00 am55 °FClear.7 mph82%30.21 "Hg10 mi
11:30 pm
Sat, Aug 19
57 °FClear.3 mph82%30.21 "Hg10 mi
11:00 pm57 °FClear.6 mph82%30.21 "Hg10 mi
10:30 pm57 °FClear.2 mph82%30.21 "Hg10 mi
9:30 pm59 °FClear.5 mph72%30.18 "Hg10 mi
9:00 pm61 °FClear.6 mph68%30.18 "Hg10 mi
8:30 pm64 °FSunny.7 mph56%30.15 "Hg10 mi
8:00 pm68 °FSunny.7 mph49%30.15 "Hg10 mi
7:30 pm70 °FSunny.9 mph43%30.15 "Hg10 mi
7:00 pm72 °FSunny.10 mph41%30.12 "Hg10 mi
6:30 pm72 °FSunny.12 mph44%30.12 "Hg10 mi
6:00 pm72 °FPassing clouds.14 mph44%30.12 "HgN/A
5:30 pm72 °FPassing clouds.13 mph44%30.12 "HgN/A
5:00 pm72 °FScattered clouds.14 mph47%30.12 "HgN/A
Weather by CustomWeather, © 2017

See weather overviewHow to use our weather pages